Tracking 17145 objects as of 29-May-2015
HD Live streaming from Space Station

COSMOS 2430

Track COSMOS 2430 now!
COSMOS 2430 is classified as:


NORAD ID: 32268
Int'l Code: 2007-049A
Perigee: 872.3 km
Apogee: 39,453.5 km
Inclination: 65.1 °
Period: 716.9 minutes
Semi major axis: 26533 km
RCS: 3.1623 m2 (large)
Launch date: October 23, 2007
Source: Commonwealth of Independent States (former USSR) (CIS)
Your satellite tracking list
Your tracking list is empty





NASA's NSSDC Master Catalog

Two Line Element Set (TLE):
1 32268U 07049A   15146.28522010  .00000020  00000-0  00000+0 0  9999
2 32268 065.1331 068.0559 7270181 248.3628 350.7874 02.00863948 55604

Source of the keplerian elements: AFSPC

N2YO: 297